Dewpoint
3 3 2 1 -1 -1 -2 -2 -3 -2 -0 2 3 3 2 0 1 3 2 2 3 5 4 3 1 3 3 3 5 4 4 4 1 3 4 3 4 3 2 1 4 3 4 3 -0 1 2 -5 -0 2 1 -2 -4 -1
2 2 1 0 -1 -2 -2 -2 -1 2 3 3 3 2 0 -1 1 1 1 2 3 5 5 5 3 2 2 1 3 4 3 3 1 3 1 2 4 3 1 4 1 3 1 3 1 2 -4 -4 -1 -2 -1 -1 -2 -2
2 2 1 -0 -1 -2 -2 -2 -0 2 3 4 3 1 -1 -1 2 1 1 2 5 5 6 5 4 3 2 2 2 3 2 3 1 -1 -0 1 3 2 4 3 2 1 -1 1 1 -1 -2 -3 -2 -3 -3 -2 -2 -2
2 2 1 -0 -1 -2 -3 -3 -3 -1 1 4 5 2 0 0 1 -0 2 4 4 4 4 5 5 4 3 2 1 1 1 1 0 -1 -0 2 3 0 2 2 3 1 0 1 1 0 -1 -3 -3 -3 -2 -1 -1 0
2 2 1 -0 -1 -2 -3 -4 -5 -5 -0 4 4 4 3 3 2 1 1 3 2 1 4 5 5 5 4 2 1 1 -0 -1 -1 1 2 3 -0 2 1 1 2 1 2 3 4 -3 -2 -3 -2 0 1 1 1 2
2 1 0 0 -0 -2 -3 -4 -4 -6 -5 3 4 3 3 3 2 3 2 1 -1 2 3 4 4 6 5 3 2 2 1 1 2 2 2 1 1 1 4 4 0 -1 -2 -2 -2 -1 -1 -0 1 1 1 1 1 2
2 1 1 1 -0 -2 -2 -3 -4 -6 -7 -5 2 3 2 2 -0 -3 -0 0 -3 -3 -2 4 4 5 5 5 4 5 4 4 4 4 2 2 3 2 2 4 0 2 1 1 1 1 2 2 2 2 2 3 3 4
3 2 2 1 0 0 -1 -2 -4 -4 -5 -6 -6 -7 -7 -6 -7 -0 3 1 -2 -4 -4 2 2 5 5 5 4 4 6 6 5 4 3 2 3 3 5 3 2 2 2 3 3 3 3 3 3 3 3 2 2 -2
3 3 3 3 2 1 -0 -0 -2 -3 -4 -5 -5 -6 -6 -6 -3 3 1 1 -3 -5 1 1 2 3 5 5 5 5 5 3 4 3 3 4 2 4 1 -1 -0 1 1 2 3 3 3 2 1 -1 -2 -3 -3 -2
3 3 4 3 3 2 2 1 -0 -1 -2 -3 -3 -3 -1 3 1 1 -2 -1 -1 2 3 1 2 3 4 4 3 3 4 2 4 3 4 3 3 -2 -3 -1 -0 1 2 2 2 -1 -2 -3 -3 -4 -3 -1 -1 -1
4 4 4 4 4 4 2 2 1 0 -1 -2 -1 3 4 2 -1 -1 1 2 3 2 3 3 3 3 3 4 3 3 2 2 4 3 4 4 3 -3 -1 -0 -0 -0 -0 -1 -1 -1 -2 -2 -1 -1 -1 -1 -1 -3
3 3 3 3 3 4 4 3 2 2 1 2 2 3 1 2 2 1 2 2 1 2 3 3 4 4 3 4 3 2 3 2 4 2 3 4 -2 -1 -0 0 0 1 1 -0 0 -0 -1 -1 -2 -2 -3 -4 -5 -7
2 3 3 3 3 3 3 3 3 2 2 2 2 2 2 2 2 -0 4 3 3 1 2 3 2 3 3 3 2 2 4 4 1 3 3 0 -4 -0 -0 -0 -0 -0 -1 -3 -4 -4 -5 -5 -4 -5 -6 -8 -11 -15
-0 1 2 3 4 4 4 4 4 3 2 3 2 1 0 2 1 1 1 1 0 1 2 3 2 2 2 2 1 4 1 1 3 3 1 -1 -0 -1 -1 -1 -3 -4 -6 -7 -7 -7 -9 -12 -13 -13 -12 -12 -12 -12
-2 -2 -0 1 1 2 4 4 4 1 1 1 -1 -0 -1 -2 -1 -1 -0 -0 0 1 2 2 1 1 0 1 -0 1 1 1 -0 -0 1 -1 -2 -4 -4 -6 -8 -8 -8 -5 -5 -5 -7 -9 -8 -8 -7 -6 -6 -5
-4 -4 -3 -2 -0 1 1 0 0 -2 -2 -1 -1 -1 -1 -1 -1 -1 -0 -0 0 1 1 1 -0 1 0 0 1 0 0 -1 -1 -1 -0 -1 -1 -3 -4 -4 -4 -3 -5 -5 -6 -8 -6 -6 -5 -5 -6 -7 -7 -7
-6 -6 -6 -4 -2 -1 -0 -3 -7 -4 -2 -2 -1 -1 -1 -1 -1 -0 -0 -0 0 0 0 -1 1 -0 -1 -1 -0 -0 -1 -1 -1 -0 -0 -1 -1 -3 -4 -3 -2 -4 -8 -7 -6 -5 -4 -4 -4 -6 -8 -8 -7 -7
-11 -11 -8 -7 -7 -6 -6 -5 -3 -3 -2 -2 -2 -2 -1 -1 -0 -1 -1 -1 -1 -1 -1 -2 -2 -2 -3 -2 -1 -2 -1 -0 -0 -1 -1 -1 -2 -4 -6 -7 -7 -6 -5 -5 -4 -5 -5 -6 -6 -6 -6 -9 -12 -14
-22 -24 -20 -11 -9 -10 -6 -4 -4 -3 -3 -2 -2 -1 -1 -1 -1 -2 -3 -3 -2 -2 -2 -3 -5 -3 -3 -3 -2 -2 -2 -2 -2 -2 -2 -3 -4 -5 -5 -4 -4 -4 -4 -5 -5 -6 -5 -5 -8 -11 -13 -14 -15 -15
-25 -27 -30 -29 -18 -7 -3 -3 -3 -4 -4 -3 -3 -3 -3 -3 -2 -2 -3 -3 -3 -3 -3 -4 -5 -4 -3 -4 -4 -4 -4 -4 -2 -2 -3 -4 -4 -5 -4 -4 -4 -4 -4 -4 -6 -8 -10 -12 -14 -14 -15 -15 -16 -17
-25 -27 -29 -30 -20 -7 -4 -3 -4 -5 -5 -5 -5 -5 -5 -5 -5 -5 -3 -3 -3 -4 -5 -2 -2 -2 -4 -3 -3 -4 -4 -3 -3 -3 -4 -4 -4 -4 -4 -4 -5 -6 -8 -9 -9 -11 -14 -15 -15 -16 -17 -19 -21 -22
-21 -23 -25 -21 -14 -6 -5 -3 -3 -5 -5 -5 -4 -5 -4 -5 -5 -5 -3 -3 -3 -4 -3 -3 -2 -2 -2 -2 -3 -3 -3 -3 -3 -4 -4 -4 -5 -5 -6 -7 -7 -7 -9 -12 -15 -15 -16 -17 -19 -22 -24 -24 -23 -22
-17 -19 -16 -10 -8 -6 -4 -4 -3 -4 -8 -4 -3 -4 -4 -4 -5 -6 -5 -3 -4 -4 -3 -4 -3 -3 -3 -4 -4 -3 -3 -4 -5 -5 -5 -5 -6 -7 -7 -9 -12 -14 -15 -16 -17 -20 -23 -25 -25 -25 -24 -22 -21 -19
-13 -12 -8 -6 -6 -6 -5 -5 -5 -5 -5 -6 -6 -8 -7 -4 -4 -4 -6 -5 -5 -4 -4 -4 -4 -5 -5 -6 -6 -6 -6 -6 -6 -6 -7 -7 -8 -9 -12 -15 -15 -15 -17 -22 -25 -25 -26 -25 -24 -23 -21 -20 -18 -18
-9 -6 -7 -7 -6 -6 -7 -7 -7 -6 -6 -6 -7 -10 -6 -5 -8 -9 -9 -7 -7 -7 -6 -6 -6 -6 -7 -8 -8 -8 -8 -7 -7 -7 -8 -9 -11 -14 -14 -15 -19 -24 -25 -26 -26 -26 -24 -23 -22 -20 -19 -19 -19 -19
-10 -6 -6 -7 -6 -6 -8 -8 -7 -6 -6 -9 -8 -7 -6 -8 -9 -8 -9 -9 -9 -8 -8 -7 -7 -7 -8 -8 -8 -8 -9 -9 -11 -13 -14 -14 -14 -16 -21 -25 -26 -25 -25 -24 -24 -23 -22 -21 -20 -20 -20 -19 -19 -19
-9 -6 -5 -5 -6 -5 -6 -6 -7 -7 -9 -9 -8 -7 -8 -6 -7 -9 -10 -9 -9 -9 -8 -8 -8 -8 -8 -9 -9 -11 -12 -13 -14 -14 -15 -17 -21 -24 -25 -25 -25 -24 -23 -23 -22 -22 -21 -20 -20 -19 -19 -19 -19 -19
-6 -6 -7 -5 -5 -5 -6 -7 -10 -7 -6 -6 -6 -8 -7 -8 -8 -11 -11 -10 -10 -10 -9 -9 -9 -9 -10 -10 -10 -11 -12 -14 -17 -20 -22 -24 -24 -24 -24 -23 -23 -23 -22 -21 -21 -20 -20 -20 -19 -19 -19 -19 -19 -19
-5 -5 -5 -5 -5 -5 -6 -6 -6 -6 -5 -5 -7 -10 -11 -11 -11 -11 -11 -11 -11 -11 -11 -11 -11 -11 -12 -12 -12 -15 -18 -21 -23 -23 -24 -24 -24 -24 -24 -24 -23 -23 -23 -22 -21 -20 -20 -20 -19 -19 -19 -19 -19 -19
-6 -7 -5 -5 -7 -9 -6 -6 -6 -6 -6 -6 -7 -9 -11 -12 -12 -12 -12 -12 -12 -12 -12 -12 -13 -13 -13 -16 -19 -21 -22 -23 -24 -26 -26 -26 -26 -25 -25 -25 -25 -25 -24 -23 -22 -21 -20 -20 -20 -20 -20 -20 -20 -20
-6 -6 -5 -6 -7 -6 -6 -7 -6 -6 -7 -7 -8 -9 -12 -13 -13 -13 -13 -13 -13 -13 -13 -13 -13 -16 -21 -22 -24 -25 -25 -25 -27 -28 -29 -28 -27 -27 -27 -25 -23 -21 -21 -22 -21 -21 -21 -21 -20 -20 -20 -20 -20 -20
-6 -6 -7 -11 -6 -6 -7 -7 -7 -7 -8 -8 -10 -11 -13 -13 -14 -14 -15 -15 -14 -14 -16 -19 -21 -22 -24 -25 -26 -26 -27 -29 -30 -30 -29 -28 -27 -25 -21 -21 -21 -21 -21 -21 -21 -21 -21 -21 -21 -21 -21 -21 -21 -21
-7 -7 -8 -8 -8 -7 -8 -9 -11 -10 -10 -11 -13 -13 -13 -14 -15 -15 -16 -16 -16 -18 -22 -23 -24 -23 -23 -25 -25 -27 -29 -32 -32 -31 -28 -24 -21 -20 -21 -21 -21 -21 -21 -21 -21 -21 -21 -21 -21 -21 -21 -21 -22 -23
Wind_Speed
45 41 39 36 35 33 31 29 27 25 24 25 27 31 36 41 46 27 21 15 8 4 15 10 14 15 10 10 5 11 6 1 3 3 3 3 3 4 2 3 5 5 5 3 3 1 6 6 4 5 4 4 6 10
41 39 36 35 33 31 29 28 26 24 22 21 24 30 35 39 43 29 21 17 8 6 8 12 12 13 10 14 16 22 8 6 8 4 1 3 2 1 2 2 1 3 4 3 7 4 4 13 9 11 10 9 11 11
38 34 33 32 31 30 29 28 25 24 22 21 21 28 35 40 40 23 22 17 13 14 12 10 11 11 13 12 13 10 6 9 8 7 8 2 3 3 4 5 1 3 5 3 1 2 10 15 17 23 25 26 27 27
34 32 31 30 29 28 28 28 24 24 22 21 22 27 33 36 31 27 19 20 12 9 7 5 9 10 13 12 9 8 12 14 14 8 5 3 3 7 3 2 3 3 8 4 4 11 15 12 13 11 13 15 18 17
31 30 29 29 27 27 26 25 24 23 22 22 25 28 30 30 33 17 18 19 14 4 7 9 14 10 11 11 13 12 11 15 10 5 3 2 6 5 2 1 3 10 6 4 5 17 8 14 15 15 17 17 19 19
28 28 27 26 26 26 25 23 23 22 21 24 25 24 25 28 29 27 7 11 13 14 8 3 5 7 12 13 15 16 12 10 5 5 3 5 4 4 4 3 11 16 18 20 13 14 16 21 21 18 16 17 18 16
25 25 24 24 23 23 23 21 21 21 22 19 23 23 22 23 21 14 9 12 14 12 6 4 3 5 9 9 7 6 7 4 3 4 3 4 3 6 2 3 5 11 12 15 16 15 15 13 9 15 16 15 11 6
22 22 22 23 19 19 17 18 19 20 21 20 19 19 17 16 18 17 16 16 13 7 5 4 1 3 4 3 3 2 4 5 3 3 3 3 5 2 3 4 14 13 14 3 8 7 10 10 11 9 6 4 6 14
20 19 19 19 14 13 15 15 17 18 19 18 17 17 17 15 7 12 15 12 9 6 6 3 5 4 3 3 3 3 2 3 1 1 1 4 1 3 3 12 15 15 11 14 11 6 3 2 4 3 3 8 16 21
16 15 15 17 15 9 10 12 14 16 17 17 14 4 5 9 21 14 5 3 4 5 5 4 3 2 2 3 3 3 3 2 2 1 4 2 2 5 9 7 8 11 10 4 1 5 8 10 11 12 17 17 16 15
16 14 14 13 16 20 4 8 10 11 12 7 4 6 16 12 4 4 5 6 5 4 4 3 2 3 2 2 2 1 2 1 2 2 3 2 2 2 11 15 15 15 16 17 12 11 12 14 18 19 16 15 13 11
16 14 14 13 15 16 12 8 8 8 5 8 12 15 7 4 6 7 2 2 3 2 2 2 3 3 3 3 4 2 3 1 3 3 1 2 2 9 8 14 17 17 19 21 18 18 16 15 13 12 11 9 5 6
15 17 14 11 11 12 13 11 8 7 14 10 4 4 4 5 6 4 5 2 2 2 3 3 2 2 3 2 5 2 3 2 5 2 1 2 9 8 15 15 15 14 12 13 14 13 11 9 6 3 1 6 10 11
16 14 11 13 14 13 13 13 18 15 6 4 4 5 3 2 2 1 2 2 3 3 7 7 4 2 2 3 1 2 1 1 3 3 3 4 6 13 12 9 9 7 9 9 8 6 5 5 5 6 7 8 9 10
16 12 7 11 12 9 9 12 12 8 6 5 5 3 3 4 5 5 6 5 4 5 5 5 5 2 2 3 1 2 2 1 1 2 1 12 14 11 8 4 3 5 6 2 2 5 5 6 7 7 8 8 8 9
13 17 20 13 10 9 11 11 12 8 6 5 7 4 4 5 4 5 8 8 6 7 6 4 2 2 2 2 2 2 4 3 2 2 16 13 13 11 10 5 3 2 1 2 1 2 4 5 6 7 8 9 9 11
12 20 17 15 12 10 9 9 6 8 6 4 5 10 8 11 7 6 7 5 5 2 1 2 2 1 2 2 1 1 2 3 12 15 13 12 7 0 3 4 5 2 1 2 1 3 4 5 6 8 10 12 14 17
16 14 12 10 11 12 13 9 7 7 7 8 5 7 11 9 10 8 7 5 3 3 1 1 4 2 3 4 2 3 4 10 11 13 11 4 3 3 3 4 4 3 1 0 1 2 3 5 8 11 14 19 23 26
18 15 10 7 6 5 5 7 7 6 8 5 7 9 9 9 10 10 7 5 9 6 4 1 3 1 2 3 3 10 11 12 13 10 5 5 6 6 7 5 1 2 1 1 2 4 6 8 11 16 21 25 26 27
14 13 13 10 5 5 5 6 6 6 4 3 5 6 5 6 5 3 1 3 7 4 3 2 1 2 1 3 6 7 10 10 8 9 9 8 7 7 4 2 2 3 2 2 4 6 11 15 18 21 23 25 27 29
13 15 14 8 14 11 7 5 6 5 5 5 5 4 4 7 6 6 4 2 2 2 2 3 3 3 7 10 12 11 11 9 8 7 9 6 5 3 5 5 3 1 3 7 10 14 16 19 21 23 24 26 28 29
14 11 9 10 7 6 7 8 5 5 3 3 3 3 3 2 3 2 3 2 1 1 0 3 2 6 9 11 12 11 11 10 9 7 7 8 8 6 4 3 3 6 9 12 14 16 18 20 22 25 27 27 27 26
9 7 7 9 6 7 4 5 4 4 3 3 2 2 1 0 1 1 1 1 1 2 1 2 5 8 11 10 11 10 7 8 11 11 9 8 6 4 3 4 7 9 11 13 15 18 20 22 23 24 24 23 24 23
8 5 6 6 8 3 3 5 4 4 3 3 2 3 2 1 1 0 1 1 2 4 3 7 8 10 10 11 13 14 12 9 9 8 5 1 2 3 6 8 10 12 14 16 18 19 20 20 21 21 21 21 21 23
4 8 5 5 6 4 4 3 3 1 1 1 1 3 1 1 1 1 1 5 9 6 2 6 6 6 11 11 11 10 8 5 3 2 3 3 4 4 6 8 11 14 16 17 18 19 19 19 18 18 19 20 22 22
6 5 3 2 3 3 1 1 2 1 1 2 3 2 1 2 2 2 3 7 7 8 8 6 7 8 9 8 8 6 5 4 3 2 4 3 4 6 9 12 14 15 17 18 19 20 19 19 19 19 19 20 21 22
4 3 3 2 1 1 2 3 2 1 1 2 1 1 2 1 1 1 2 4 2 5 5 5 5 4 4 5 5 5 4 3 3 3 3 5 8 11 13 15 15 16 17 18 19 20 20 20 20 19 19 19 20 21
3 3 1 4 2 1 1 1 1 0 1 2 1 1 2 1 1 1 1 2 3 2 2 4 6 6 4 4 4 4 3 3 2 4 6 8 10 12 13 16 17 18 18 18 18 18 19 19 19 19 19 20 20 20
3 5 4 2 2 2 2 1 2 3 4 2 2 1 2 2 3 5 5 4 3 0 2 3 2 2 3 3 3 3 2 3 5 7 8 10 12 14 16 17 17 18 18 17 16 18 18 18 18 17 18 18 18 18
3 7 3 2 1 1 1 5 6 6 4 1 2 4 4 4 3 4 5 4 3 4 1 0 2 2 2 2 2 2 3 5 7 11 13 15 17 17 17 18 17 18 18 18 17 16 16 15 15 15 15 14 14 14
2 2 2 2 2 1 3 5 6 5 4 3 3 3 5 6 6 5 4 3 1 1 3 3 2 1 2 4 5 7 9 11 14 16 17 17 17 17 17 17 18 18 17 17 16 16 16 15 15 15 15 15 14 14
2 1 3 1 1 3 7 3 3 2 3 2 0 2 4 4 4 3 1 1 1 1 2 2 2 3 4 6 8 11 13 14 16 17 16 16 15 15 16 17 16 16 16 16 16 15 15 15 15 15 15 15 15 15
2 3 3 4 3 2 2 5 1 1 1 2 3 2 2 2 3 3 2 2 2 2 2 3 4 6 9 11 14 16 17 17 16 16 16 16 16 16 17 17 16 16 15 15 15 15 15 15 14 14 15 14 14 14
Wind_Direction
152 144 146 155 155 154 154 153 152 155 160 166 172 176 179 182 181 186 190 196 199 176 165 177 168 155 150 158 137 151 101 237 60 79 134 183 167 206 150 162 181 179 157 181 110 184 272 189 139 168 227 255 264 218
135 141 147 149 145 144 142 141 143 146 151 160 170 175 177 179 180 186 195 205 217 173 146 147 158 167 185 180 151 164 167 156 159 92 124 116 142 106 127 233 338 244 197 176 195 219 231 202 232 237 261 275 282 273
139 141 138 136 137 136 135 132 134 136 141 150 164 173 175 177 180 180 199 206 170 122 104 110 112 142 152 158 168 139 170 163 164 140 144 133 138 138 162 233 204 236 179 209 122 228 240 255 256 265 277 278 287 287
133 133 133 132 130 131 133 133 131 131 133 138 150 163 167 168 167 183 189 190 164 157 111 90 118 123 135 144 155 149 185 166 154 141 113 135 142 195 189 171 183 200 156 179 261 277 280 283 291 316 303 293 292 295
131 129 127 125 125 126 130 135 132 127 126 128 143 151 158 166 170 188 224 206 190 161 131 122 104 91 125 129 128 116 132 157 149 125 107 182 134 128 73 63 255 190 186 177 231 272 253 283 306 309 305 304 304 296
125 124 125 125 125 124 125 128 131 132 130 117 123 137 149 158 165 184 136 134 143 125 105 117 116 103 116 131 138 143 147 154 154 147 147 157 154 163 138 198 254 237 241 252 258 285 293 294 298 303 298 301 299 297
127 127 126 123 122 125 124 124 131 129 126 130 134 136 141 146 163 182 143 133 130 121 103 84 38 137 135 136 137 137 148 142 149 143 128 133 132 172 123 197 317 341 304 291 288 288 285 296 298 297 297 296 288 243
129 129 130 118 115 118 122 124 126 125 126 135 139 138 135 138 124 108 121 132 140 116 84 109 284 126 162 151 126 134 142 144 89 128 126 115 121 126 223 304 338 343 347 329 348 313 273 291 306 313 306 265 177 139
137 132 121 118 106 115 133 135 129 129 132 132 125 126 122 120 95 108 115 123 116 111 109 88 135 201 166 120 103 97 90 74 24 138 107 134 120 209 344 324 334 338 320 301 323 326 332 3 58 70 136 146 137 120
133 140 150 153 170 97 122 130 133 137 138 137 135 116 91 105 121 117 78 85 66 46 63 84 116 121 126 132 68 105 59 129 167 224 137 130 117 103 16 13 10 12 6 356 288 39 67 76 81 95 106 110 102 92
127 131 136 153 173 196 128 136 142 140 142 126 60 59 115 118 89 64 67 55 10 40 37 77 93 122 124 117 145 121 155 111 174 226 189 180 116 28 89 76 67 63 61 61 72 81 89 97 104 101 90 80 70 51
109 122 133 144 159 178 193 160 145 150 118 105 106 109 105 67 58 71 43 31 51 178 90 91 87 92 96 116 108 133 131 100 207 134 135 176 145 145 82 92 81 78 82 79 77 84 85 84 78 66 59 48 20 329
77 83 113 126 137 153 159 168 161 132 131 114 83 83 32 13 63 107 162 189 164 161 139 135 78 110 115 120 88 105 142 205 123 172 198 95 143 115 114 96 82 77 73 78 84 86 89 87 91 93 288 296 303 309
60 71 88 102 112 123 136 143 149 150 121 65 47 59 50 76 69 68 50 79 115 119 119 117 90 97 68 73 69 137 100 126 190 191 186 159 156 124 124 100 61 82 99 95 91 74 47 29 8 352 346 340 336 335
76 79 100 106 91 103 133 156 149 115 75 68 38 68 58 104 83 88 93 101 103 118 115 101 81 83 34 90 39 111 110 175 177 174 115 140 138 139 139 143 109 117 132 26 10 1 8 4 3 358 351 348 346 344
77 79 69 84 104 100 99 90 98 93 70 54 49 76 100 81 67 77 89 79 84 100 99 86 88 84 86 118 128 179 149 192 160 169 138 134 124 113 132 162 228 333 266 288 333 359 1 356 353 0 353 343 344 339
75 61 58 68 88 96 122 107 64 58 70 58 40 70 77 90 79 74 76 72 96 84 63 77 95 137 102 77 142 171 187 165 160 158 139 131 130 127 226 253 231 243 129 113 352 339 340 348 343 331 336 342 334 324
69 57 60 72 83 89 70 52 69 66 63 49 65 43 68 84 93 76 77 70 40 95 130 115 126 109 152 155 227 203 158 149 158 152 146 161 196 238 151 145 134 129 125 4 318 340 328 324 329 334 330 329 330 330
56 49 53 67 81 71 53 43 42 79 56 58 70 71 82 82 81 76 70 40 34 52 99 109 75 153 217 211 172 162 162 159 152 155 149 132 135 149 143 118 16 296 231 252 300 321 328 327 334 337 340 337 335 335
54 49 49 49 67 71 68 47 58 79 77 48 57 59 63 64 57 46 340 348 347 359 15 42 229 354 69 114 145 181 186 172 165 157 143 144 143 145 122 142 177 190 226 287 321 334 338 340 341 342 341 337 335 335
51 49 48 60 58 65 76 53 64 66 83 70 55 35 47 20 1 344 329 285 304 310 32 15 17 131 128 123 123 125 131 139 147 169 170 160 156 160 139 129 114 47 357 352 348 345 342 343 342 338 334 332 331 330
38 36 42 44 60 67 66 43 70 77 64 76 40 36 48 34 358 354 325 264 300 336 257 356 334 173 161 157 156 159 159 167 166 161 156 155 144 136 120 80 26 359 352 351 348 346 342 338 333 332 331 330 330 333
31 36 47 39 68 50 40 25 48 41 64 20 0 42 43 218 259 313 321 311 317 315 285 307 292 208 188 165 158 150 151 144 128 121 130 133 124 104 51 15 7 2 356 350 344 339 336 334 331 330 331 334 337 341
40 51 41 41 39 67 37 33 34 31 34 18 15 338 314 337 228 37 259 329 324 304 260 246 223 164 145 134 119 114 113 110 109 106 106 94 63 40 17 4 356 349 344 340 336 334 331 331 333 335 335 338 341 342
43 23 27 32 31 61 47 34 20 43 24 255 298 311 297 194 64 8 281 20 16 11 27 187 196 182 133 107 100 104 108 105 95 86 97 65 36 24 2 349 342 337 335 333 332 334 335 335 336 338 340 338 338 340
73 32 52 45 37 46 181 131 191 203 247 300 243 326 149 72 56 7 30 6 28 54 71 92 115 120 110 102 97 88 78 70 55 55 94 73 21 352 343 340 339 336 334 334 334 336 338 338 336 334 334 333 334 337
65 51 52 59 47 282 276 232 232 205 190 208 259 44 62 48 64 72 349 18 96 82 79 78 61 57 80 77 63 59 61 58 61 70 43 5 346 339 335 336 336 336 335 335 334 333 331 331 330 330 330 333 335 336
80 39 48 336 302 232 262 20 86 65 358 14 159 83 159 180 139 157 110 100 124 114 90 61 44 33 47 59 55 52 56 64 38 6 352 340 335 335 334 335 333 332 333 330 328 327 324 324 325 326 328 331 331 332
52 5 338 340 316 1 48 46 15 8 336 283 166 135 130 121 156 164 164 158 154 295 325 338 1 46 26 21 35 58 45 9 353 349 338 333 333 330 329 326 326 326 325 324 325 324 324 324 324 324 326 327 328 329
16 4 355 358 52 305 7 19 341 326 319 296 158 133 132 134 140 172 180 200 250 278 280 3 359 351 11 54 37 15 354 344 336 335 334 331 330 327 326 327 329 328 326 325 325 325 323 323 322 323 324 325 326 327
317 322 282 236 273 262 279 303 298 280 254 235 187 166 145 149 146 144 162 176 201 302 326 327 2 32 24 18 8 358 347 339 333 330 327 326 326 326 327 329 330 329 328 327 328 329 331 331 331 331 331 332 332 333
297 10 349 324 277 272 304 271 269 257 237 235 105 114 141 149 151 176 211 276 331 4 25 27 26 21 12 358 346 338 332 329 325 324 323 323 323 326 329 330 329 330 329 329 330 331 332 332 332 333 333 334 334 335
336 1 352 321 309 303 322 326 339 228 199 85 85 93 123 124 120 147 130 135 63 40 57 67 38 7 350 339 337 336 333 327 323 322 323 324 328 331 331 329 329 330 329 329 331 332 333 334 334 335 335 336 337 337
Height
1293 1304 1316 1326 1334 1342 1349 1356 1361 1367 1373 1379 1386 1392 1400 1409 1420 1427 1432 1436 1440 1441 1445 1448 1451 1453 1458 1462 1470 1479 1486 1487 1490 1499 1504 1508 1510 1508 1510 1509 1514 1511 1518 1524 1539 1529 1513 1497 1500 1503 1494 1490 1489 1489
1306 1316 1326 1335 1341 1347 1353 1359 1365 1371 1376 1380 1386 1392 1400 1409 1419 1427 1431 1434 1437 1441 1444 1447 1449 1452 1455 1457 1460 1471 1471 1476 1479 1492 1503 1507 1510 1514 1516 1506 1509 1511 1505 1507 1511 1503 1494 1494 1491 1490 1490 1489 1488 1488
1319 1327 1333 1339 1347 1353 1359 1364 1369 1374 1379 1383 1388 1393 1401 1409 1419 1426 1433 1434 1437 1440 1446 1448 1450 1453 1454 1457 1460 1464 1471 1472 1475 1477 1487 1498 1502 1507 1510 1509 1506 1503 1502 1504 1503 1492 1490 1489 1489 1488 1487 1486 1486 1484
1330 1336 1343 1348 1353 1358 1363 1369 1374 1379 1383 1387 1391 1396 1403 1411 1419 1427 1430 1432 1434 1438 1442 1452 1453 1454 1455 1457 1460 1461 1463 1469 1473 1477 1482 1491 1496 1498 1504 1501 1502 1498 1499 1498 1498 1489 1486 1484 1484 1484 1483 1482 1481 1480
1341 1346 1350 1354 1360 1365 1370 1374 1378 1383 1388 1390 1395 1400 1405 1412 1418 1426 1429 1431 1431 1433 1441 1451 1454 1456 1456 1458 1460 1462 1465 1468 1472 1477 1481 1488 1488 1495 1502 1502 1499 1489 1489 1493 1490 1481 1482 1481 1480 1480 1479 1477 1476 1475
1348 1352 1358 1364 1368 1372 1376 1380 1384 1388 1392 1395 1398 1402 1408 1414 1421 1426 1429 1430 1430 1431 1437 1452 1457 1458 1458 1459 1461 1463 1466 1468 1471 1473 1477 1480 1482 1486 1496 1496 1481 1479 1479 1479 1479 1478 1478 1477 1477 1476 1474 1473 1471 1469
1357 1362 1367 1371 1375 1378 1381 1386 1390 1392 1396 1401 1405 1409 1412 1416 1421 1423 1423 1427 1429 1432 1436 1452 1456 1459 1459 1461 1462 1465 1466 1468 1471 1473 1476 1479 1481 1484 1490 1490 1477 1479 1478 1477 1476 1475 1474 1473 1473 1472 1471 1469 1467 1467
1366 1371 1375 1378 1381 1384 1388 1391 1394 1397 1401 1406 1410 1412 1414 1417 1420 1422 1424 1427 1431 1433 1437 1451 1459 1460 1460 1460 1462 1464 1466 1468 1471 1474 1477 1479 1483 1484 1485 1481 1479 1477 1475 1474 1473 1473 1472 1472 1471 1470 1469 1468 1468 1470
1375 1378 1380 1382 1387 1390 1394 1397 1399 1402 1405 1409 1410 1413 1416 1419 1422 1426 1428 1430 1432 1437 1440 1447 1456 1462 1459 1461 1463 1466 1466 1471 1475 1474 1477 1479 1484 1483 1485 1483 1480 1477 1476 1474 1473 1471 1471 1470 1469 1471 1471 1471 1472 1476
1379 1382 1385 1388 1392 1395 1398 1400 1402 1404 1408 1411 1414 1415 1418 1422 1425 1428 1432 1433 1436 1439 1442 1449 1454 1458 1460 1461 1465 1468 1469 1474 1475 1476 1476 1478 1480 1485 1484 1482 1480 1477 1474 1472 1472 1472 1473 1473 1472 1474 1476 1479 1479 1481
1385 1387 1389 1392 1395 1399 1403 1404 1406 1408 1410 1412 1414 1419 1423 1425 1427 1430 1434 1439 1445 1448 1450 1453 1455 1457 1460 1462 1465 1468 1471 1474 1474 1475 1476 1476 1481 1486 1485 1483 1482 1480 1478 1476 1475 1475 1476 1477 1478 1479 1481 1482 1483 1483
1389 1391 1393 1396 1398 1401 1405 1408 1410 1412 1414 1416 1417 1422 1426 1428 1431 1438 1448 1450 1450 1453 1454 1454 1456 1458 1460 1461 1463 1469 1470 1474 1471 1475 1476 1474 1485 1485 1485 1484 1484 1483 1482 1481 1481 1480 1481 1482 1482 1483 1483 1483 1483 1483
1396 1396 1397 1399 1401 1404 1406 1409 1411 1414 1416 1419 1421 1425 1429 1436 1443 1447 1449 1451 1453 1453 1454 1455 1458 1459 1461 1463 1465 1467 1469 1470 1474 1474 1472 1480 1483 1484 1485 1485 1485 1485 1485 1484 1484 1485 1485 1484 1483 1483 1483 1482 1482 1481
1405 1404 1404 1403 1404 1406 1409 1412 1414 1417 1420 1422 1427 1436 1439 1441 1446 1447 1448 1449 1452 1453 1454 1455 1457 1459 1461 1463 1466 1465 1472 1472 1470 1470 1475 1481 1482 1484 1485 1486 1486 1486 1487 1487 1487 1488 1488 1487 1486 1485 1484 1482 1481 1480
1412 1411 1410 1410 1410 1412 1413 1415 1417 1419 1423 1429 1433 1443 1445 1448 1448 1450 1450 1452 1453 1455 1456 1457 1459 1461 1463 1465 1468 1470 1471 1472 1475 1475 1476 1480 1482 1484 1486 1487 1487 1487 1487 1487 1487 1487 1487 1487 1487 1486 1484 1482 1481 1480
1416 1416 1414 1415 1416 1416 1418 1419 1420 1423 1430 1437 1442 1446 1448 1449 1451 1452 1453 1454 1455 1455 1457 1458 1461 1462 1466 1467 1468 1469 1470 1473 1474 1475 1477 1480 1482 1483 1485 1486 1486 1487 1488 1487 1487 1487 1487 1486 1486 1485 1484 1482 1480 1478
1419 1418 1419 1419 1419 1420 1421 1422 1423 1427 1438 1445 1449 1449 1450 1451 1453 1454 1455 1457 1457 1458 1460 1461 1462 1465 1468 1469 1470 1469 1470 1471 1472 1474 1477 1480 1481 1483 1483 1484 1485 1486 1486 1486 1486 1486 1486 1485 1484 1483 1482 1480 1479 1477
1422 1423 1423 1423 1423 1424 1424 1425 1430 1440 1448 1452 1453 1454 1454 1455 1457 1458 1459 1460 1461 1461 1462 1464 1465 1468 1472 1473 1471 1470 1470 1472 1475 1477 1480 1481 1482 1482 1483 1483 1484 1485 1485 1485 1485 1485 1484 1483 1482 1480 1479 1477 1474 1470
1427 1427 1426 1426 1426 1427 1430 1436 1439 1448 1455 1456 1457 1457 1458 1460 1461 1462 1464 1464 1463 1463 1463 1464 1467 1468 1468 1466 1466 1468 1470 1472 1474 1477 1479 1480 1481 1482 1483 1484 1484 1484 1484 1484 1484 1483 1482 1481 1480 1478 1474 1472 1469 1465
1432 1431 1430 1429 1428 1431 1438 1445 1448 1453 1459 1461 1461 1462 1462 1463 1465 1465 1466 1467 1466 1465 1464 1466 1466 1466 1466 1466 1467 1469 1470 1472 1475 1476 1478 1480 1480 1481 1482 1482 1482 1482 1482 1483 1483 1483 1481 1479 1476 1474 1472 1468 1464 1460
1436 1435 1434 1433 1432 1437 1445 1450 1454 1459 1461 1463 1464 1464 1465 1466 1466 1467 1467 1467 1468 1466 1467 1468 1467 1467 1468 1468 1469 1470 1471 1473 1475 1476 1477 1478 1480 1480 1480 1481 1482 1482 1483 1482 1481 1480 1478 1475 1473 1470 1468 1465 1461 1457
1439 1438 1438 1438 1441 1446 1452 1457 1459 1462 1464 1465 1466 1466 1466 1467 1468 1468 1469 1468 1468 1468 1468 1469 1469 1469 1469 1469 1469 1470 1471 1472 1473 1474 1475 1477 1478 1480 1481 1481 1482 1481 1480 1479 1478 1476 1474 1472 1470 1467 1463 1459 1456 1452
1443 1442 1443 1446 1448 1454 1464 1462 1462 1464 1465 1467 1467 1467 1467 1467 1468 1469 1468 1468 1468 1468 1468 1469 1469 1468 1468 1468 1468 1468 1470 1472 1472 1473 1475 1477 1478 1480 1480 1480 1480 1479 1478 1477 1475 1474 1472 1468 1465 1462 1458 1455 1451 1447
1446 1447 1451 1455 1459 1464 1466 1466 1467 1468 1468 1470 1470 1471 1469 1469 1470 1469 1470 1469 1469 1468 1468 1468 1469 1468 1469 1470 1469 1469 1471 1474 1474 1474 1476 1477 1478 1478 1479 1478 1477 1477 1475 1474 1472 1470 1468 1464 1461 1458 1454 1451 1448 1444
1455 1462 1463 1465 1467 1467 1470 1471 1472 1472 1472 1472 1472 1471 1469 1470 1472 1473 1473 1472 1471 1470 1468 1469 1469 1470 1470 1470 1471 1472 1473 1474 1475 1475 1476 1477 1478 1478 1478 1477 1476 1474 1473 1471 1469 1466 1463 1460 1457 1454 1451 1447 1444 1440
1464 1468 1469 1470 1471 1471 1473 1475 1474 1472 1472 1473 1472 1471 1470 1471 1474 1475 1476 1476 1475 1473 1472 1471 1471 1472 1472 1473 1473 1474 1475 1475 1475 1476 1476 1477 1477 1477 1476 1475 1474 1472 1469 1466 1463 1460 1458 1455 1453 1450 1447 1444 1441 1437
1469 1470 1471 1471 1471 1472 1472 1472 1472 1472 1474 1474 1472 1471 1472 1472 1475 1479 1478 1477 1476 1476 1475 1475 1475 1474 1474 1474 1474 1475 1475 1475 1476 1477 1477 1476 1476 1475 1474 1472 1470 1468 1464 1461 1458 1456 1453 1451 1449 1446 1443 1440 1437 1433
1471 1472 1473 1472 1471 1471 1471 1471 1472 1472 1471 1471 1471 1473 1473 1475 1476 1478 1477 1477 1477 1477 1477 1476 1476 1476 1476 1476 1476 1475 1476 1476 1476 1476 1476 1475 1474 1472 1470 1468 1465 1463 1460 1458 1456 1453 1450 1447 1444 1442 1439 1436 1433 1430
1472 1472 1472 1471 1471 1471 1471 1472 1472 1472 1472 1471 1470 1472 1474 1474 1475 1476 1477 1477 1478 1478 1478 1477 1477 1477 1476 1476 1476 1476 1476 1476 1476 1475 1474 1472 1471 1469 1467 1464 1462 1459 1457 1455 1452 1449 1446 1443 1440 1438 1435 1432 1429 1426
1474 1473 1472 1472 1472 1473 1473 1472 1472 1472 1471 1470 1470 1471 1473 1474 1475 1476 1476 1477 1477 1477 1477 1477 1477 1476 1476 1476 1476 1476 1476 1475 1474 1473 1471 1469 1467 1465 1462 1460 1457 1455 1452 1450 1447 1445 1443 1440 1437 1435 1432 1429 1427 1424
1473 1473 1472 1472 1472 1472 1472 1472 1471 1471 1470 1470 1469 1470 1471 1473 1475 1475 1476 1476 1476 1476 1476 1476 1476 1476 1476 1476 1475 1475 1474 1473 1471 1469 1467 1465 1463 1460 1458 1456 1453 1451 1448 1446 1443 1441 1438 1435 1433 1431 1428 1426 1423 1421
1473 1473 1473 1473 1472 1472 1471 1470 1469 1469 1469 1469 1469 1470 1472 1473 1474 1476 1476 1476 1476 1476 1476 1476 1476 1476 1476 1475 1474 1474 1472 1470 1468 1465 1463 1461 1459 1457 1454 1452 1449 1447 1444 1442 1439 1437 1434 1432 1430 1427 1425 1423 1420 1418
1473 1474 1473 1473 1471 1470 1470 1470 1468 1468 1468 1469 1470 1471 1471 1473 1474 1476 1476 1476 1477 1476 1476 1476 1476 1476 1475 1473 1472 1470 1468 1466 1464 1461 1459 1457 1455 1453 1450 1448 1446 1443 1441 1438 1436 1434 1431 1429 1427 1424 1422 1420 1418 1415